Tracking 29969 objects as of 6-Dec-2024
HD Live streaming from Space Station
objects crossing your sky now

STARLINK-30172

Track STARLINK-30172 now!
10-day predictions
STARLINK-30172 is classified as:


NORAD ID: 57410
Int'l Code: 2023-102G
Perigee: 565.5 km
Apogee: 566.9 km
Inclination: 43.0 °
Period: 95.8 minutes
Semi major axis: 6937 km
RCS: Unknown
Launch date: July 20, 2023
Source: United States (US)
Launch site: AIR FORCE WESTERN TEST RANGE (AFWTR)
Your satellite tracking list
Your tracking list is empty




NASA's NSSDC Master Catalog

Two Line Element Set (TLE):
1 57410U 23102G   24341.10624464  .00000358  00000-0  41583-4 0  9997
2 57410  43.0020 220.6660 0000983 266.5343  93.5387 15.02534489 77256
Source of the keplerian elements: AFSPC